Hourly Weather Kivatichi

Today, 27 July, Tuesday

Time Temperature Precipitation Wind Pressure Humidity
00:00 +20°C° 0.2 mm 5 mps 747 mmHg 92%
01:00 +19°C° 0.2 mm 5 mps 747 mmHg 93%
02:00 +19°C° 0.2 mm 5 mps 746 mmHg 95%
03:00 +19°C° 0 mm 4 mps 746 mmHg 95%
04:00 +18°C° 0 mm 3 mps 746 mmHg 96%
05:00 +18°C° 0 mm 3 mps 746 mmHg 96%
06:00 +19°C° 0 mm 3 mps 746 mmHg 91%
07:00 +21°C° 0 mm 3 mps 746 mmHg 87%
08:00 +22°C° 0 mm 3 mps 746 mmHg 82%
09:00 +25°C° 0 mm 3 mps 746 mmHg 75%
10:00 +27°C° 0 mm 3 mps 746 mmHg 68%
11:00 +28°C° 0 mm 3 mps 746 mmHg 61%
12:00 +29°C° 0.2 mm 3 mps 746 mmHg 61%
13:00 +29°C° 0.2 mm 3 mps 745 mmHg 60%
14:00 +29°C° 0.2 mm 3 mps 745 mmHg 60%
15:00 +28°C° 1.2 mm 4 mps 745 mmHg 65%
16:00 +27°C° 1.2 mm 4 mps 745 mmHg 70%
17:00 +26°C° 1.2 mm 5 mps 745 mmHg 75%
18:00 +25°C° 0.5 mm 4 mps 745 mmHg 79%
19:00 +24°C° 0.5 mm 3 mps 745 mmHg 83%
20:00 +23°C° 0.5 mm 2 mps 745 mmHg 87%
21:00 +21°C° 0 mm 2 mps 746 mmHg 87%
22:00 +22°C° 0 mm 1 mps 746 mmHg 88%
23:00 +21°C° 0 mm 1 mps 747 mmHg 89%

Tomorrow, 28 July, Wednesday

Time Temperature Precipitation Wind Pressure Humidity
00:00 +21°C° 0 mm 1 mps 747 mmHg 89%
01:00 +20°C° 0 mm 2 mps 746 mmHg 90%
02:00 +19°C° 0 mm 2 mps 746 mmHg 90%
03:00 +19°C° 0 mm 2 mps 746 mmHg 90%
04:00 +19°C° 0 mm 2 mps 746 mmHg 90%
05:00 +19°C° 0 mm 2 mps 746 mmHg 90%
06:00 +20°C° 0 mm 2 mps 746 mmHg 84%
07:00 +23°C° 0 mm 1 mps 746 mmHg 79%
08:00 +24°C° 0 mm 1 mps 746 mmHg 73%
09:00 +26°C° 0 mm 1 mps 746 mmHg 66%
10:00 +28°C° 0 mm 1 mps 746 mmHg 59%
11:00 +29°C° 0 mm 1 mps 746 mmHg 52%
12:00 +30°C° 0 mm 1 mps 746 mmHg 49%
13:00 +31°C° 0 mm 1 mps 746 mmHg 45%
14:00 +31°C° 0 mm 1 mps 746 mmHg 42%
15:00 +31°C° 0 mm 1 mps 745 mmHg 42%
16:00 +31°C° 0 mm 2 mps 745 mmHg 43%
17:00 +31°C° 0 mm 3 mps 744 mmHg 43%
18:00 +29°C° 0.1 mm 2 mps 744 mmHg 53%
19:00 +26°C° 0.1 mm 2 mps 744 mmHg 64%
20:00 +24°C° 0.1 mm 2 mps 744 mmHg 74%
21:00 +23°C° 0.6 mm 2 mps 744 mmHg 78%
22:00 +23°C° 0.6 mm 1 mps 744 mmHg 83%
23:00 +22°C° 0.6 mm 1 mps 744 mmHg 87%

Day after tomorrow, 29 July, Thursday

Time Temperature Precipitation Wind Pressure Humidity
00:00 +22°C° 0.7 mm 1 mps 744 mmHg 88%
01:00 +21°C° 0.7 mm 1 mps 744 mmHg 90%
02:00 +21°C° 0.7 mm 1 mps 743 mmHg 92%
03:00 +20°C° 0.1 mm 2 mps 743 mmHg 93%
04:00 +20°C° 0.1 mm 2 mps 744 mmHg 95%
05:00 +19°C° 0.1 mm 3 mps 744 mmHg 96%
06:00 +20°C° 0 mm 3 mps 744 mmHg 92%
07:00 +21°C° 0 mm 3 mps 744 mmHg 87%
08:00 +22°C° 0 mm 3 mps 744 mmHg 83%
09:00 +24°C° 0.1 mm 3 mps 745 mmHg 76%
10:00 +26°C° 0.1 mm 3 mps 745 mmHg 69%
11:00 +27°C° 0.1 mm 3 mps 745 mmHg 62%
12:00 +27°C° 0.3 mm 4 mps 745 mmHg 58%
13:00 +28°C° 0.3 mm 4 mps 745 mmHg 53%
14:00 +29°C° 0.3 mm 5 mps 745 mmHg 48%
15:00 +29°C° 0 mm 5 mps 745 mmHg 48%
16:00 +28°C° 0 mm 5 mps 745 mmHg 47%
17:00 +28°C° 0 mm 5 mps 745 mmHg 47%
18:00 +27°C° 0 mm 4 mps 745 mmHg 52%
19:00 +25°C° 0 mm 3 mps 744 mmHg 56%
20:00 +24°C° 0 mm 2 mps 744 mmHg 61%
21:00 +24°C° 0 mm 2 mps 745 mmHg 60%
22:00 +23°C° 0 mm 2 mps 745 mmHg 58%
23:00 +23°C° 0 mm 2 mps 745 mmHg 57%

30 July, Friday

Time Temperature Precipitation Wind Pressure Humidity
00:00 +21°C° 0 mm 2 mps 745 mmHg 59%
01:00 +21°C° 0 mm 2 mps 745 mmHg 62%
02:00 +20°C° 0 mm 2 mps 744 mmHg 64%
03:00 +19°C° 0 mm 2 mps 744 mmHg 65%
04:00 +19°C° 0 mm 2 mps 744 mmHg 65%
05:00 +18°C° 0 mm 2 mps 744 mmHg 66%
06:00 +20°C° 0 mm 2 mps 744 mmHg 63%
07:00 +21°C° 0 mm 2 mps 744 mmHg 60%
08:00 +24°C° 0 mm 3 mps 744 mmHg 58%
09:00 +25°C° 0 mm 4 mps 744 mmHg 54%
10:00 +27°C° 0 mm 4 mps 744 mmHg 50%
11:00 +29°C° 0 mm 5 mps 744 mmHg 46%
12:00 +29°C° 0 mm 5 mps 744 mmHg 46%
13:00 +29°C° 0 mm 5 mps 743 mmHg 46%
14:00 +29°C° 0 mm 5 mps 743 mmHg 46%
15:00 +29°C° 0 mm 5 mps 743 mmHg 49%
16:00 +29°C° 0 mm 5 mps 743 mmHg 52%
17:00 +28°C° 0 mm 5 mps 742 mmHg 55%
18:00 +26°C° 0.3 mm 4 mps 742 mmHg 65%
19:00 +24°C° 0.3 mm 3 mps 742 mmHg 76%
20:00 +20°C° 0.3 mm 2 mps 742 mmHg 86%
21:00 +20°C° 0.1 mm 2 mps 742 mmHg 88%
22:00 +19°C° 0.1 mm 3 mps 742 mmHg 91%
23:00 +19°C° 0.1 mm 3 mps 742 mmHg 93%

31 July, Saturday

Time Temperature Precipitation Wind Pressure Humidity
00:00 +19°C° 0 mm 2 mps 742 mmHg 93%
01:00 +19°C° 0 mm 2 mps 742 mmHg 92%
02:00 +18°C° 0 mm 2 mps 742 mmHg 92%
03:00 +19°C° 0 mm 1 mps 742 mmHg 89%
04:00 +19°C° 0 mm 1 mps 742 mmHg 86%
05:00 +19°C° 0 mm 1 mps 742 mmHg 84%
06:00 +20°C° 0 mm 1 mps 742 mmHg 78%
07:00 +19°C° 0 mm 0 mps 742 mmHg 73%
08:00 +21°C° 0 mm 0 mps 742 mmHg 67%
09:00 +22°C° 0 mm 0 mps 742 mmHg 60%
10:00 +26°C° 0 mm 1 mps 742 mmHg 54%
11:00 +27°C° 0 mm 1 mps 742 mmHg 47%
12:00 +28°C° 0 mm 1 mps 742 mmHg 46%
13:00 +29°C° 0 mm 2 mps 741 mmHg 44%
14:00 +29°C° 0 mm 2 mps 741 mmHg 43%
15:00 +28°C° 0.1 mm 3 mps 741 mmHg 49%
16:00 +28°C° 0.1 mm 3 mps 741 mmHg 56%
17:00 +27°C° 0.1 mm 4 mps 740 mmHg 62%
18:00 +25°C° 0.8 mm 4 mps 740 mmHg 71%
19:00 +24°C° 0.8 mm 3 mps 741 mmHg 79%
20:00 +21°C° 0.8 mm 3 mps 741 mmHg 87%
21:00 +20°C° 0.4 mm 3 mps 741 mmHg 89%
22:00 +20°C° 0.4 mm 3 mps 741 mmHg 90%
23:00 +19°C° 0.4 mm 3 mps 742 mmHg 91%

1 August, Sunday

Time Temperature Precipitation Wind Pressure Humidity
00:00 +18°C° 0 mm 3 mps 742 mmHg 91%
01:00 +17°C° 0 mm 3 mps 742 mmHg 91%
02:00 +17°C° 0 mm 3 mps 742 mmHg 90%
03:00 +16°C° 0 mm 3 mps 742 mmHg 89%
04:00 +16°C° 0 mm 3 mps 743 mmHg 88%
05:00 +15°C° 0 mm 2 mps 743 mmHg 87%
06:00 +17°C° 0 mm 3 mps 743 mmHg 81%
07:00 +18°C° 0 mm 3 mps 743 mmHg 75%
08:00 +19°C° 0 mm 4 mps 743 mmHg 68%
09:00 +21°C° 0 mm 4 mps 743 mmHg 62%
10:00 +22°C° 0 mm 4 mps 743 mmHg 55%
11:00 +25°C° 0 mm 4 mps 744 mmHg 48%
12:00 +26°C° 0 mm 4 mps 743 mmHg 45%
13:00 +26°C° 0 mm 5 mps 743 mmHg 42%
14:00 +27°C° 0 mm 5 mps 743 mmHg 39%
15:00 +27°C° 0 mm 4 mps 743 mmHg 40%
16:00 +26°C° 0 mm 4 mps 743 mmHg 42%
17:00 +26°C° 0 mm 4 mps 743 mmHg 44%
18:00 +23°C° 0.1 mm 4 mps 743 mmHg 54%
19:00 +21°C° 0.1 mm 4 mps 743 mmHg 64%
20:00 +18°C° 0.1 mm 4 mps 743 mmHg 74%
21:00 +17°C° 0 mm 4 mps 743 mmHg 77%
22:00 +17°C° 0 mm 3 mps 743 mmHg 80%
23:00 +16°C° 0 mm 2 mps 743 mmHg 83%
Show more